Temperature
19 20 20 20 23 23 22 23 23 23 23 22 21 21 23 23 23 22 21 20 20 19 18 17 16 15 15 14 13 12 12 11 11 11 10 10 10 9 9 9 9 9 9 9 9 9 10 10 11
18 19 20 21 23 22 22 23 23 23 22 21 21 21 22 22 21 21 20 20 20 19 18 17 17 16 15 14 13 12 12 12 11 11 10 10 10 9 9 9 9 9 9 9 9 9 10 10 11
18 19 21 23 22 22 22 23 23 22 21 21 22 21 22 22 21 20 20 20 20 19 18 17 17 16 15 14 13 13 12 12 11 11 10 10 10 9 9 9 9 9 9 9 9 9 10 10 11
18 19 21 23 22 22 23 23 22 22 21 20 21 22 21 21 20 21 20 20 20 19 18 18 17 16 16 15 14 13 12 12 11 11 10 10 10 9 9 9 9 9 9 9 9 10 10 10 10
18 21 22 22 22 22 23 22 21 22 22 21 21 23 22 21 21 21 20 20 19 19 18 18 17 16 15 15 14 13 12 12 11 11 10 10 9 9 9 9 10 10 10 9 10 10 10 10 10
20 22 22 21 22 22 23 21 21 22 22 21 21 22 22 21 21 21 20 20 19 19 18 17 17 16 15 14 14 13 13 12 11 11 10 10 9 9 9 10 10 10 10 10 10 10 10 10 10
21 22 22 22 22 22 22 21 22 22 22 22 21 22 22 20 21 20 20 20 19 19 18 17 16 16 15 14 13 13 12 12 11 11 10 10 9 9 9 9 9 10 10 10 10 10 10 10 10
20 22 21 21 21 22 22 20 20 21 22 20 20 22 22 20 20 20 19 19 19 18 18 17 16 15 14 13 13 12 12 11 11 11 10 10 10 9 9 9 9 9 9 9 10 10 10 9 10
19 22 21 21 21 22 21 21 21 19 20 20 19 20 20 20 19 19 19 19 18 18 18 17 15 14 14 13 12 12 11 11 11 10 10 10 9 9 8 8 9 9 9 9 9 9 9 9 9
20 21 21 21 21 22 21 20 21 20 21 21 20 19 19 19 19 18 18 18 18 18 18 17 16 15 13 13 12 11 11 11 11 10 10 10 9 9 9 9 9 9 9 9 9 9 9 9 8
20 21 21 20 20 19 20 20 19 20 21 21 20 19 18 18 18 18 17 17 17 17 17 17 16 15 14 13 12 11 11 11 10 10 10 9 9 9 9 9 9 9 9 8 8 8 8 8 8
20 20 19 20 18 18 19 19 19 19 20 18 18 17 17 17 17 18 17 17 17 17 17 17 16 15 15 13 12 12 11 11 10 10 10 9 9 9 9 9 9 8 8 8 8 8 8 8 8
19 19 18 18 17 17 17 18 18 18 18 17 17 17 17 17 17 17 18 17 17 17 17 16 16 15 15 14 13 12 11 11 11 10 10 9 9 9 9 9 9 9 8 8 8 8 8 8 8
18 18 18 18 17 17 17 18 17 18 16 16 16 16 16 16 17 17 17 18 18 18 17 17 16 15 15 14 14 13 12 11 10 10 10 10 9 9 9 9 9 8 8 8 8 8 7 8 8
17 18 20 19 17 17 17 19 18 17 16 17 16 15 15 16 16 17 17 18 18 18 17 17 16 16 15 14 13 12 12 11 10 10 10 10 9 9 8 8 8 8 8 8 8 7 7 7 7
18 19 20 19 18 17 18 20 20 16 16 17 16 15 15 15 15 17 17 18 18 18 18 17 17 16 15 14 13 12 11 11 10 10 9 9 9 8 8 8 8 8 7 7 7 7 7 7 7
19 20 20 19 18 18 19 19 20 16 16 17 16 15 15 14 15 16 17 17 17 17 17 17 16 16 15 14 13 12 11 11 10 9 9 9 9 8 8 8 7 7 7 7 7 7 6 6 6
19 19 19 19 19 18 18 19 19 17 16 17 16 15 14 14 14 15 16 17 17 17 17 16 16 15 14 13 12 12 11 11 10 10 10 9 9 9 8 8 8 7 7 7 7 7 6 6 6
18 18 19 19 18 16 18 18 18 17 16 16 16 15 14 13 13 15 15 16 16 16 16 16 15 15 14 13 12 12 11 11 11 10 10 10 9 9 8 8 8 7 7 7 7 6 6 6 5
17 17 18 18 16 16 17 18 18 16 16 16 15 15 14 13 13 14 15 15 15 15 15 15 14 14 13 13 12 12 11 11 11 10 10 10 10 9 9 9 8 8 7 8 7 7 6 6 6
17 17 18 18 17 16 16 18 17 16 15 14 14 14 13 13 13 13 14 14 14 14 14 14 14 13 13 12 12 12 11 11 11 10 10 10 10 9 9 9 8 8 8 8 8 7 6 6 5
17 17 17 16 17 19 17 19 18 17 16 16 14 14 13 12 12 13 14 14 14 14 13 13 13 13 12 12 12 11 11 11 10 10 10 10 10 9 9 9 8 8 8 8 8 7 6 5 5
17 15 15 16 17 17 17 18 20 17 17 17 16 14 13 12 12 12 13 13 13 13 13 12 12 12 12 11 11 11 10 10 10 10 9 9 9 9 8 8 8 8 7 7 7 7 6 5 5
14 15 14 15 16 17 18 18 19 18 18 18 16 14 13 12 11 12 12 12 12 12 12 12 12 11 11 11 11 10 10 9 9 9 8 8 8 8 8 7 7 7 7 7 7 6 6 6 5
15 17 18 18 18 18 16 16 19 18 18 18 17 15 13 12 11 11 12 12 12 12 11 11 11 11 11 10 10 9 9 8 8 8 8 7 7 7 7 7 7 7 6 6 6 6 6 5 5
16 17 18 18 19 18 15 17 19 16 15 15 15 15 13 12 11 11 11 11 11 11 11 11 11 10 10 10 9 9 8 8 7 7 7 7 6 6 6 6 6 6 6 6 6 5 5 5 5
16 16 17 18 16 17 18 18 18 15 14 14 14 14 13 12 11 11 11 11 11 11 10 10 10 10 9 9 8 8 7 7 6 6 6 6 6 6 6 6 6 6 5 5 5 5 5 4 4
15 16 16 17 17 17 18 18 19 17 16 15 14 13 13 12 11 10 10 10 10 10 10 10 9 9 8 8 7 7 6 6 6 6 5 5 5 5 5 5 5 5 5 5 4 4 4 3 3
14 15 16 17 17 17 18 19 18 17 17 16 15 14 13 12 11 10 10 10 10 10 9 9 9 8 8 7 6 6 6 5 5 5 5 5 5 4 4 4 4 4 4 4 3 3 2 2 2
16 16 16 17 16 16 17 18 16 16 15 15 14 13 12 11 10 10 9 9 9 9 9 8 8 7 7 6 6 6 5 5 5 4 4 4 4 4 4 3 3 3 3 3 2 2 1 1 1
Wind_Speed
3 2 3 3 4 5 4 1 1 1 1 0 0 2 3 5 5 4 3 8 8 15 22 24 23 21 19 17 16 14 13 11 10 9 9 9 8 8 8 8 9 9 10 10 10 11 11 12 12
2 2 4 4 6 6 4 1 1 3 1 0 3 4 4 2 2 2 2 8 10 16 22 22 24 22 20 18 17 15 14 12 11 10 9 8 8 8 7 8 8 8 8 9 9 10 10 11 11
3 3 4 5 9 7 3 1 3 3 2 3 3 3 3 2 1 0 3 9 12 16 21 21 25 23 21 19 17 16 14 13 12 10 9 8 8 7 7 7 7 7 7 8 8 8 9 9 10
4 4 5 8 8 6 5 3 4 4 2 4 4 3 3 1 1 3 3 10 12 16 20 21 25 24 22 20 19 17 15 14 12 11 10 9 8 8 7 7 6 6 6 6 7 7 7 8 8
3 5 9 10 9 4 3 4 3 4 2 2 4 5 4 3 2 1 3 10 12 15 19 21 24 23 22 21 19 18 16 15 14 12 11 10 9 8 7 7 6 5 5 5 5 6 6 6 6
4 6 8 11 10 6 5 3 3 4 3 3 4 5 5 4 2 1 4 9 11 14 18 19 24 23 22 21 20 19 17 16 15 13 12 11 9 9 8 7 6 5 5 4 4 4 4 4 5
5 7 8 8 8 8 5 2 4 4 5 4 3 5 5 4 3 1 4 8 10 13 17 17 21 22 22 21 20 19 18 17 15 14 13 11 10 9 9 8 7 6 5 4 3 3 2 2 3
2 5 8 8 9 8 3 3 3 5 6 1 3 6 7 3 3 2 4 7 9 12 15 17 19 20 20 20 20 19 18 17 16 14 13 12 11 10 10 9 8 7 6 5 4 3 2 1 1
3 7 9 8 7 6 3 4 4 3 6 5 6 8 5 2 1 3 5 8 10 12 14 16 17 18 18 18 19 19 18 17 16 15 14 13 11 11 10 10 9 9 8 7 6 5 5 4 3
4 9 10 6 7 7 5 7 7 6 9 10 9 8 4 3 4 6 8 10 12 14 15 15 16 16 16 15 16 16 16 16 16 14 14 14 11 10 9 8 10 10 9 9 8 7 7 7 6
4 8 7 6 6 6 6 7 5 7 12 11 11 11 7 6 7 9 10 10 11 12 13 14 15 16 15 14 14 13 14 14 15 15 14 12 11 10 10 9 10 11 10 10 8 9 9 8 7
5 6 6 5 3 4 7 6 7 9 11 9 9 9 9 8 8 9 9 9 8 10 13 14 16 16 16 15 14 13 12 12 13 14 14 12 10 10 10 9 10 9 9 9 9 9 10 10 11
6 5 5 6 6 7 8 11 10 10 9 7 4 4 5 6 7 6 7 7 8 10 12 14 15 16 16 15 13 13 13 13 14 13 14 14 11 10 11 11 11 11 11 11 11 11 12 12 12
3 5 7 8 9 5 7 7 5 5 1 2 3 4 5 5 6 5 3 5 7 9 11 12 15 16 16 14 13 13 13 13 14 14 15 16 14 12 11 12 12 12 13 13 13 13 13 12 12
3 6 9 5 4 3 4 6 5 2 1 2 3 5 6 7 7 6 5 3 4 6 8 10 12 14 15 15 15 13 13 13 13 14 15 16 16 15 14 12 12 13 14 15 14 15 14 12 13
3 5 5 3 1 2 5 6 3 1 1 2 3 5 7 9 10 9 7 5 2 2 5 7 8 11 13 13 13 12 12 13 13 13 14 16 17 17 15 13 13 15 14 13 12 12 12 12 13
5 5 4 2 2 2 5 8 3 1 3 1 3 6 8 10 12 11 10 9 7 5 5 6 7 8 9 10 10 10 10 11 12 12 13 14 16 17 16 14 15 15 13 12 11 12 12 13 14
5 5 5 5 2 4 8 11 8 4 3 4 6 7 8 10 11 11 11 11 10 9 8 6 5 5 5 5 6 6 8 8 10 11 12 14 15 16 16 15 16 15 10 11 12 14 13 13 13
5 7 9 8 3 4 9 10 7 3 4 7 9 9 10 10 10 10 12 12 13 12 11 8 6 5 4 4 4 4 5 6 7 10 13 14 15 15 15 13 14 13 11 13 15 14 14 13 12
8 9 10 7 2 4 7 9 4 2 5 8 10 10 10 11 11 11 13 13 14 13 11 10 8 6 4 3 2 2 3 4 5 7 10 12 14 15 14 14 12 12 11 14 15 14 12 11 9
10 11 9 6 3 3 5 4 4 5 7 7 8 9 9 10 11 11 12 13 13 12 11 9 8 6 4 3 2 1 2 3 3 5 6 8 11 13 14 15 14 12 12 12 14 14 15 13 12
9 7 8 6 5 4 3 4 6 9 10 9 9 9 9 9 10 10 11 12 11 10 9 9 8 7 5 3 1 1 2 3 3 4 5 6 8 10 12 13 14 13 12 13 14 14 13 14 13
4 3 4 4 5 6 5 6 5 11 15 15 13 11 9 9 9 10 10 10 9 8 8 8 8 8 5 3 1 1 3 4 4 5 6 6 6 7 9 11 11 12 11 14 14 14 14 13 14
6 5 3 2 4 6 5 7 5 11 17 19 16 13 11 10 9 9 9 8 8 7 7 7 7 7 5 4 2 2 3 5 6 6 6 6 5 5 6 8 9 10 11 12 13 14 16 15 16
6 5 4 5 5 4 3 5 6 6 9 15 17 15 13 11 10 10 9 8 7 7 6 6 6 6 5 4 3 3 3 5 6 6 6 7 6 6 7 7 8 9 10 12 12 13 15 16 17
9 7 6 4 3 1 4 6 2 3 4 7 12 14 13 12 10 9 8 7 6 6 5 5 5 5 4 4 3 3 3 4 4 6 6 7 7 7 9 9 9 11 12 12 12 12 14 15 16
7 7 3 2 1 4 5 4 4 4 5 8 12 14 14 13 11 10 8 6 5 5 4 3 3 3 3 4 4 4 4 4 5 6 7 6 7 8 10 10 11 12 12 13 13 12 15 15 16
2 5 5 5 4 5 5 5 4 7 8 9 13 15 14 12 11 9 8 6 4 3 2 2 2 2 3 4 4 4 5 5 6 7 8 9 10 10 11 12 13 14 14 14 14 14 15 17 17
7 5 5 4 3 4 5 4 2 5 7 10 12 13 13 12 10 9 7 5 4 3 2 1 2 2 3 4 5 5 6 6 8 8 9 10 11 12 13 14 14 15 16 16 16 16 17 18 18
7 8 9 6 6 5 5 5 3 4 5 8 10 10 9 8 8 7 6 5 4 2 1 1 2 3 4 5 6 7 7 8 9 10 11 12 13 13 14 15 16 16 17 17 18 19 18 19 20
Wind_Direction
259 257 235 230 234 237 242 217 291 328 268 19 244 249 319 350 354 3 59 160 157 161 167 173 175 174 173 172 170 166 163 160 155 149 139 131 124 117 108 100 93 86 81 76 74 72 71 70 68
244 221 211 224 242 236 216 207 296 342 2 175 208 229 257 290 287 321 107 162 166 165 168 174 174 175 175 174 173 171 169 166 162 157 148 141 136 128 119 109 101 93 85 79 76 75 74 73 70
198 233 207 215 233 241 221 174 341 343 266 228 215 229 277 325 193 70 68 161 168 168 172 173 173 176 177 177 176 175 174 172 169 165 159 155 148 139 128 119 109 100 93 85 78 77 75 74 72
200 190 204 227 225 232 253 290 334 315 219 220 242 237 226 239 33 56 100 163 170 171 175 174 176 178 179 180 180 178 178 178 175 172 170 165 159 150 139 131 122 112 103 94 83 77 76 75 74
215 197 207 222 228 230 252 306 310 300 278 213 237 264 259 140 109 67 144 170 175 173 176 176 179 181 182 183 183 182 182 183 181 179 179 175 169 162 154 148 139 130 119 105 92 81 75 74 74
186 202 216 223 227 237 257 261 268 281 273 232 236 265 273 120 114 79 162 177 180 176 177 178 182 184 185 187 187 186 186 188 187 186 187 184 180 175 169 165 159 154 144 130 115 97 81 76 73
204 208 227 235 242 249 261 232 257 281 273 257 233 267 271 137 63 77 164 176 181 181 182 182 184 188 190 191 192 190 191 192 193 192 193 193 190 188 184 180 178 176 170 161 150 134 110 86 81
234 218 229 239 249 262 247 210 251 272 291 294 231 266 286 77 70 118 154 176 183 187 189 188 188 189 192 194 196 195 194 197 198 198 197 197 198 199 196 193 191 191 190 190 190 190 190 183 129
230 235 241 245 255 267 221 242 260 254 266 246 238 269 320 73 139 173 177 187 192 195 197 196 194 192 193 195 195 197 198 201 203 204 200 200 207 206 203 203 194 202 205 209 211 217 220 218 214
217 242 251 255 256 273 263 266 283 263 264 266 262 257 244 242 237 234 225 211 203 200 199 199 199 197 196 196 196 201 203 204 207 209 205 208 211 212 212 190 199 212 217 220 223 226 224 229 234
227 250 261 248 251 266 269 270 264 267 275 283 290 299 293 267 256 252 246 235 220 208 200 203 202 201 200 198 200 202 204 206 209 213 212 210 209 210 214 213 207 216 221 227 219 224 232 237 245
238 249 253 261 223 239 263 274 267 259 277 310 304 300 294 283 275 264 257 246 228 214 207 205 204 204 205 205 204 206 206 207 209 211 212 210 211 215 218 222 224 224 224 230 233 238 239 244 247
240 260 253 253 249 259 266 265 274 272 291 311 318 317 311 306 300 283 266 253 233 219 212 207 205 206 206 210 211 212 213 212 213 213 215 216 219 222 224 229 231 233 235 235 239 244 248 249 252
254 261 271 273 264 249 256 265 243 264 332 17 29 22 13 2 345 328 292 257 237 224 215 206 206 208 207 210 214 216 219 218 221 218 219 220 226 229 230 235 236 239 239 242 246 250 254 255 255
260 277 275 253 241 222 239 254 221 208 281 356 34 48 44 34 24 12 350 307 254 226 213 205 206 208 210 214 219 223 223 224 226 226 226 226 229 233 235 241 242 243 244 246 249 254 256 258 259
232 252 253 174 218 200 243 265 163 129 294 353 50 66 59 49 41 33 27 26 39 174 189 190 194 205 210 215 221 225 228 230 232 234 234 233 235 239 242 245 248 248 248 247 249 253 254 256 258
227 242 247 227 188 228 247 271 245 237 281 218 106 89 76 64 49 41 42 50 63 87 123 155 177 193 205 213 221 228 233 236 239 241 241 241 242 243 244 248 252 253 249 248 251 254 256 260 263
244 243 250 260 217 258 264 270 281 284 243 178 132 111 91 72 53 48 53 60 68 77 90 110 141 167 184 199 215 225 236 240 242 243 244 245 245 244 247 251 255 256 251 250 252 254 257 260 268
261 257 267 273 280 272 267 275 287 291 188 161 140 122 103 87 75 67 67 70 73 74 79 87 104 127 151 166 190 215 234 240 243 245 248 248 248 247 246 250 256 254 250 252 255 257 260 261 264
233 252 265 272 225 260 282 281 279 169 161 151 142 130 118 108 92 79 75 72 72 73 74 79 88 105 133 155 177 222 254 261 262 257 254 253 251 250 248 249 253 254 252 254 257 256 257 260 252
230 241 256 268 276 222 285 242 167 146 143 139 140 134 126 115 105 94 84 79 75 70 69 74 79 90 106 138 161 186 238 259 259 262 263 262 258 255 251 253 255 257 254 256 257 254 251 254 254
247 239 240 245 264 259 271 260 181 169 168 166 158 151 136 125 114 105 97 87 79 75 76 78 80 82 89 116 157 227 277 295 305 305 293 287 274 265 260 258 258 259 256 256 257 255 253 252 256
224 111 179 223 248 268 229 245 197 178 187 183 175 164 151 139 128 117 106 99 91 85 83 83 84 79 79 83 78 299 301 308 312 311 304 303 292 278 270 266 263 261 260 259 260 259 254 249 250
143 129 123 182 225 247 216 226 219 192 200 187 181 176 167 156 145 131 122 114 103 96 90 87 86 79 72 69 55 358 330 322 319 321 319 316 308 297 286 277 269 266 264 263 262 261 258 253 252
185 213 233 222 217 231 156 234 250 181 196 193 186 182 175 168 161 152 144 133 118 104 93 88 83 73 60 51 33 6 336 323 319 321 319 316 312 308 307 294 281 275 270 268 266 263 260 257 254
199 221 241 261 254 244 197 240 241 137 179 200 194 184 177 176 172 163 155 144 130 115 99 85 73 60 43 27 12 359 345 328 323 320 314 310 307 306 307 299 289 284 280 275 270 267 263 261 258
178 208 250 266 279 269 245 256 264 175 197 196 192 187 183 181 177 172 164 155 141 126 105 80 62 47 29 10 353 344 340 329 321 315 309 305 302 302 300 297 293 289 285 281 278 271 269 267 264
248 161 167 210 241 253 253 247 232 192 194 186 187 187 184 180 179 176 171 163 151 136 115 79 48 26 6 351 343 328 324 321 314 309 308 306 305 302 299 298 295 292 289 285 281 277 274 273 270
165 182 202 201 246 254 267 251 183 198 185 181 181 182 181 180 179 177 173 166 157 144 122 65 26 4 349 338 327 319 319 316 311 307 306 306 304 303 300 298 296 294 292 290 286 281 279 277 275
217 208 194 216 223 228 264 270 118 198 189 182 175 173 174 174 173 172 169 164 158 142 89 22 2 348 337 326 317 315 314 311 308 308 308 306 304 302 300 298 295 293 291 290 288 287 284 281 278
Height
1554 1557 1559 1561 1559 1556 1557 1555 1553 1554 1555 1557 1558 1558 1556 1556 1557 1561 1559 1556 1555 1555 1556 1558 1559 1561 1563 1564 1565 1567 1567 1568 1568 1569 1569 1569 1569 1568 1568 1568 1567 1567 1566 1566 1565 1564 1563 1563 1562
1554 1556 1560 1560 1557 1559 1557 1554 1554 1554 1556 1558 1558 1558 1557 1556 1557 1557 1556 1556 1555 1555 1556 1558 1559 1561 1563 1564 1565 1566 1567 1568 1569 1569 1569 1569 1569 1569 1569 1568 1568 1567 1567 1566 1566 1565 1564 1564 1563
1554 1556 1559 1556 1556 1557 1556 1553 1553 1555 1557 1557 1557 1557 1556 1556 1557 1556 1556 1555 1555 1555 1556 1557 1559 1560 1562 1564 1565 1566 1567 1568 1569 1569 1570 1570 1570 1570 1569 1569 1568 1568 1567 1567 1566 1566 1565 1564 1564
1554 1557 1558 1554 1554 1553 1553 1552 1554 1554 1555 1556 1556 1555 1555 1555 1555 1555 1554 1554 1555 1555 1556 1557 1558 1560 1561 1563 1565 1566 1567 1568 1569 1570 1570 1570 1570 1570 1570 1569 1569 1568 1568 1567 1567 1566 1566 1565 1565
1554 1555 1554 1554 1553 1552 1553 1554 1555 1553 1553 1554 1555 1553 1553 1553 1553 1553 1553 1554 1554 1554 1555 1556 1557 1559 1561 1562 1564 1565 1567 1568 1569 1569 1570 1570 1571 1570 1570 1570 1569 1569 1568 1568 1567 1567 1566 1566 1565
1555 1552 1552 1554 1551 1551 1552 1554 1554 1553 1552 1554 1554 1552 1551 1551 1551 1551 1552 1552 1553 1553 1554 1555 1556 1558 1560 1561 1563 1565 1566 1567 1568 1569 1570 1570 1571 1571 1570 1570 1570 1569 1569 1569 1568 1568 1567 1566 1566
1554 1550 1550 1551 1551 1551 1551 1553 1552 1551 1551 1551 1552 1551 1549 1550 1549 1549 1550 1550 1551 1551 1552 1554 1555 1556 1558 1560 1562 1563 1565 1566 1567 1569 1569 1570 1571 1571 1571 1570 1570 1570 1569 1569 1568 1568 1567 1567 1566
1553 1551 1551 1551 1551 1550 1551 1552 1552 1551 1550 1551 1551 1549 1548 1548 1548 1547 1547 1547 1548 1549 1550 1552 1553 1555 1557 1558 1560 1562 1564 1565 1567 1568 1569 1569 1570 1570 1570 1570 1570 1569 1569 1569 1568 1568 1568 1567 1566
1552 1552 1551 1550 1551 1549 1550 1551 1551 1550 1550 1549 1548 1547 1547 1546 1545 1544 1544 1544 1545 1546 1547 1549 1551 1553 1555 1557 1558 1560 1562 1564 1565 1566 1567 1568 1569 1570 1570 1570 1569 1569 1569 1568 1568 1568 1567 1566 1566
1552 1551 1548 1548 1548 1548 1549 1549 1549 1548 1546 1545 1545 1544 1543 1542 1541 1541 1541 1541 1542 1543 1545 1546 1548 1550 1553 1555 1556 1558 1560 1561 1563 1564 1565 1566 1567 1568 1569 1568 1568 1568 1568 1567 1567 1566 1566 1565 1565
1550 1548 1547 1549 1549 1549 1549 1548 1547 1546 1542 1542 1542 1542 1540 1539 1538 1537 1537 1538 1539 1540 1541 1543 1545 1548 1550 1552 1554 1556 1557 1559 1560 1562 1563 1564 1565 1566 1566 1566 1566 1566 1566 1566 1565 1565 1565 1564 1563
1550 1548 1549 1548 1548 1548 1547 1546 1545 1543 1542 1541 1539 1537 1536 1535 1534 1534 1533 1534 1535 1536 1538 1540 1542 1544 1547 1549 1551 1553 1554 1556 1557 1559 1560 1561 1562 1563 1564 1564 1564 1564 1564 1564 1564 1563 1562 1561 1561
1549 1547 1547 1547 1547 1546 1546 1544 1543 1540 1539 1537 1535 1534 1533 1532 1531 1530 1529 1530 1531 1532 1534 1536 1539 1541 1543 1545 1547 1549 1551 1553 1554 1555 1557 1558 1559 1560 1561 1561 1561 1561 1561 1561 1560 1560 1559 1558 1557
1548 1547 1546 1545 1545 1544 1543 1541 1541 1537 1537 1536 1534 1533 1531 1529 1527 1526 1526 1526 1527 1529 1531 1533 1535 1538 1540 1542 1544 1546 1548 1549 1551 1552 1553 1554 1556 1556 1557 1557 1557 1558 1558 1557 1557 1556 1555 1554 1553
1548 1546 1541 1541 1542 1541 1542 1537 1536 1536 1536 1535 1534 1532 1529 1527 1526 1524 1523 1523 1524 1526 1527 1529 1532 1534 1536 1538 1540 1542 1544 1546 1547 1548 1549 1550 1552 1552 1553 1553 1553 1553 1553 1553 1552 1552 1550 1549 1548
1545 1543 1539 1538 1540 1540 1542 1533 1533 1534 1534 1534 1533 1532 1530 1528 1525 1524 1523 1522 1523 1524 1525 1527 1529 1531 1533 1535 1536 1538 1540 1541 1543 1544 1545 1546 1547 1548 1549 1548 1548 1548 1548 1547 1547 1546 1544 1543 1541
1541 1538 1537 1536 1538 1538 1537 1531 1531 1533 1533 1532 1532 1532 1531 1529 1527 1525 1523 1523 1523 1523 1524 1525 1527 1528 1530 1531 1533 1534 1536 1537 1538 1539 1540 1541 1542 1543 1543 1543 1543 1543 1542 1541 1540 1540 1539 1537 1535
1537 1536 1537 1535 1535 1537 1534 1529 1528 1530 1531 1530 1531 1532 1531 1529 1528 1526 1525 1525 1524 1524 1524 1525 1526 1527 1528 1529 1530 1531 1532 1533 1534 1534 1535 1536 1536 1537 1537 1537 1537 1537 1535 1534 1534 1533 1532 1530 1528
1538 1537 1536 1533 1535 1537 1531 1527 1526 1528 1529 1529 1530 1531 1531 1531 1529 1528 1527 1527 1526 1526 1526 1526 1527 1527 1528 1528 1529 1529 1530 1530 1531 1531 1531 1531 1531 1531 1531 1531 1531 1530 1529 1528 1527 1526 1524 1523 1522
1539 1538 1534 1532 1536 1535 1530 1526 1525 1527 1527 1528 1530 1531 1532 1532 1531 1530 1529 1529 1529 1528 1528 1528 1528 1529 1529 1529 1529 1529 1529 1529 1529 1528 1528 1528 1527 1527 1526 1525 1525 1524 1523 1521 1521 1520 1517 1516 1516
1537 1535 1531 1532 1532 1534 1533 1522 1524 1526 1528 1530 1531 1532 1532 1532 1532 1531 1531 1531 1531 1530 1530 1530 1530 1530 1530 1530 1529 1529 1529 1528 1528 1527 1526 1525 1524 1523 1522 1521 1520 1518 1517 1515 1514 1513 1511 1509 1509
1532 1530 1532 1534 1532 1525 1530 1521 1519 1522 1526 1528 1530 1531 1532 1532 1532 1532 1532 1532 1532 1532 1532 1532 1532 1531 1531 1530 1530 1529 1528 1528 1527 1525 1524 1523 1521 1520 1518 1517 1515 1514 1512 1510 1508 1507 1505 1502 1500
1528 1532 1533 1533 1531 1528 1527 1523 1511 1520 1522 1524 1528 1530 1531 1532 1532 1532 1532 1532 1533 1533 1533 1533 1532 1532 1531 1530 1530 1529 1527 1526 1525 1523 1521 1520 1518 1516 1514 1512 1511 1509 1507 1505 1503 1501 1498 1496 1493
1532 1533 1536 1534 1530 1527 1520 1521 1509 1512 1512 1517 1524 1528 1530 1531 1531 1532 1532 1533 1533 1533 1533 1533 1532 1532 1531 1530 1529 1527 1526 1524 1522 1520 1518 1516 1514 1512 1510 1508 1506 1504 1501 1499 1497 1494 1491 1489 1486
1530 1527 1527 1525 1523 1517 1523 1523 1507 1505 1509 1513 1519 1524 1527 1529 1530 1531 1532 1532 1533 1533 1533 1532 1532 1531 1530 1528 1527 1525 1523 1521 1519 1517 1515 1513 1511 1508 1506 1503 1501 1498 1496 1493 1490 1487 1484 1481 1478
1523 1522 1522 1521 1516 1514 1524 1517 1503 1508 1512 1514 1517 1521 1525 1527 1529 1530 1530 1531 1531 1532 1532 1531 1530 1529 1528 1526 1524 1522 1520 1518 1516 1514 1512 1509 1507 1504 1502 1499 1496 1493 1490 1487 1483 1479 1476 1473 1470
1521 1519 1518 1518 1523 1520 1509 1507 1503 1508 1510 1513 1515 1518 1521 1524 1526 1527 1529 1529 1530 1530 1530 1529 1528 1527 1526 1524 1522 1520 1517 1515 1513 1511 1508 1505 1503 1500 1497 1493 1490 1487 1483 1480 1476 1471 1468 1464 1460
1518 1516 1521 1518 1520 1517 1508 1506 1499 1501 1504 1508 1511 1514 1518 1521 1524 1525 1526 1527 1527 1528 1527 1527 1526 1524 1523 1521 1518 1516 1514 1512 1509 1507 1504 1501 1498 1495 1491 1487 1484 1480 1476 1472 1467 1463 1459 1455 1451
1519 1520 1515 1513 1514 1514 1510 1501 1495 1497 1500 1503 1507 1511 1515 1518 1521 1522 1524 1525 1525 1525 1525 1524 1523 1521 1519 1517 1515 1513 1510 1508 1505 1502 1499 1496 1492 1488 1484 1480 1476 1472 1467 1463 1459 1454 1450 1445 1441
1510 1509 1510 1512 1513 1514 1509 1502 1497 1498 1500 1503 1506 1510 1513 1516 1518 1519 1521 1522 1522 1522 1522 1521 1519 1518 1516 1513 1511 1508 1506 1503 1500 1497 1494 1490 1486 1481 1477 1472 1467 1463 1458 1454 1449 1444 1440 1435 1430